This demonstration page uses our WeatherBlox Daily Observations layout. Learn more.

Left ArrowRight Arrow

Hourly Observations for November 20, 2020

Temp ( °F °C ) Dew Point ( °F °C ) Humidity (%) Winds ( mph kmh ) Pressure ( in mb ) Visibility ( mi km ) Precip ( " mm )
12:54 am 00:54 Clear 38 3.3 33 0.6 83 83 N 8 13 30.16 1021 10 16.0934 0 0
1:54 am 01:54 Clear 39 3.9 33 0.6 79 79 N 9 15 30.18 1022 10 16.0934 0 0
2:54 am 02:54 Clear 38 3.3 32 0 79 79 N 6 9 30.21 1023 10 16.0934 0 0
3:54 am 03:54 Clear 39 3.9 32 0 76 76 Calm 30.24 1024 10 16.0934 0 0
4:54 am 04:54 Clear 37 2.8 31 -0.6 79 79 N 8 13 30.27 1025 10 16.0934 0 0
5:54 am 05:54 Clear 40 4.4 34 1.1 79 79 N 10 17 30.32 1027 10 16.0934 0 0
6:54 am 06:54 Clear 38 3.3 33 0.6 83 83 N 8 13 30.35 1028 10 16.0934 0 0
7:54 am 07:54 Sunny 41 5 35 1.7 79 79 NNW 6 9 30.38 1029 10 16.0934 0 0
8:54 am 08:54 Sunny 46 7.8 38 3.3 73 73 N 8 13 30.41 1030 10 16.0934 0 0
9:54 am 09:54 Sunny 50 10 38 3.3 63 63 N 10 17 30.44 1031 10 16.0934 0 0
10:54 am 10:54 Sunny 56 13.3 34 1.1 44 44 undefined N/A 30.44 1031 10 16.0934 0 0
11:54 am 11:54 Sunny 56 13.3 30 -1.1 37 37 NE 9 15 30.43 1031 10 16.0934 0 0
12:54 pm 12:54 Sunny 58 14.4 31 -0.6 36 36 NE 10 17 30.42 1030 10 16.0934 0 0
1:54 pm 13:54 Sunny 60 15.6 29 -1.7 31 31 NE 13 20 30.42 1030 10 16.0934 0 0
2:54 pm 14:54 Sunny 59 15 28 -2.2 31 31 NE 12 19 30.42 1030 10 16.0934 0 0
3:54 pm 15:54 Sunny 57 13.9 29 -1.7 34 34 NE 10 17 30.44 1031 10 16.0934 0 0
4:54 pm 16:54 Mostly Sunny 50 10 29 -1.7 44 44 NNE 10 17 30.46 1032 10 16.0934 0 0
5:54 pm 17:54 Cloudy 46 7.8 28 -2.2 50 50 NNE 9 15 30.47 1032 10 16.0934 0 0
6:54 pm 18:54 Mostly Cloudy 42 5.6 29 -1.7 60 60 NNE 7 11 30.49 1033 10 16.0934 0 0
7:54 pm 19:54 Clear 43 6.1 30 -1.1 60 60 N 3 6 30.51 1033 10 16.0934 0 0
8:54 pm 20:54 Mostly Cloudy 40 4.4 30 -1.1 68 68 N 3 6 30.52 1034 10 16.0934 0 0
9:54 pm 21:54 Cloudy 43 6.1 31 -0.6 63 63 Calm 30.52 1034 10 16.0934 0 0
10:54 pm 22:54 Mostly Clear 38 3.3 30 -1.1 73 73 N 6 9 30.53 1034 10 16.0934 0 0
11:54 pm 23:54 Mostly Cloudy 39 3.9 31 -0.6 73 73 N 5 7 30.53 1034 10 16.0934 0 0

Powered by AerisWeather